Location: Jastrz?bniki
(50.3667°N, 20.3833°E)
Time: 11:06:28
(UTC+00:00)

SAR-Lupe-4 - Pass Details

Date: 05 August 2024
Orbit: 473 x 479 km, 98.1° (Epoch: 30 August)

Event Time Altitude Azimuth Distance (km) Brightness Sun altitude
Rises 01:59:19 0° 15° (NNE) 2,541 8.3 -10.3°
Reaches altitude 10° 02:01:23 10° 18° (NNE) 1,658 7.3 -10.1°
Maximum altitude 02:04:57 74° 103° (ESE) 502 3.7 -9.7°
Drops below altitude 10° 02:08:29 10° 190° (S) 1,647 5.8 -9.3°
Enters shadow 02:09:02 - 190° (S) 1,883 6.1 -9.2°
